AddedLatest Added eBooks:

  1. 2021-04-20The Eventide Child By C A Hines
  2. 2021-04-20The Smithsonian Book Of Preside Smithsonian Institution
  3. 2021-04-20Rick Steves Scandinavia Rick Steves
  4. 2021-04-20Life Of The Party Bob Kealing
  5. 2021-04-20Netsuite For Dummies
  6. 2021-04-20Moon Northern California Hiking 3rd Edition
  7. 2021-04-20Antiques Roadshow US S25E13 720p HEVC x265-MeGusta
  8. 2021-04-20The Joy Of Pain Schadenfreude And The Dark Side Of Human Nature
  9. 2021-04-20The Simple Wild K A Tucker
  10. 2021-04-20Kitbash3D – Colonial
  11. 2021-04-20The Power Of Stretching Bob Doto
  12. 2021-04-20The Practice Of Practice Harnum Jonathan
  13. 2021-04-20Antiques Roadshow US S25E13 1080p HEVC x265-MeGusta
  14. 2021-04-20The Neighborhood S03E14 720p HEVC x265-MeGusta
  15. 2021-04-20Moon Shot by Dan Parry
  16. 2021-04-20Bob Hearts Abishola S02E14 720p HEVC x265-MeGusta
  17. 2021-04-20The Tassajara Bread Book Edward Espe Brown
  18. 2021-04-20Frida Kahlo Frida Kahlo
  19. 2021-04-20All American S03E10 720p HEVC x265-MeGusta
  20. 2021-04-20Untapped Talent by Jeffrey D Korzenik
  21. 2021-04-20Mayans M C S03E06 You Cant Pray a Lie 720p HEVC x265
  22. 2021-04-20Moon Magic Your Complete Guide To Harnessing The Mystical Energy Of The Moon
  23. 2021-04-20Living With A Serial Killer S01E02 1080p HEVC x265
  24. 2021-04-20Court Cam S03E29 720p HEVC x265
  25. 2021-04-20Big Sky 2020 S01E11 1080p HEVC x265
  26. 2021-04-20Four Arts Of Photography Dominic Mciver Lopes
  27. 2021-04-20Annotation by Remi Kalir, Antero Garcia
  28. 2021-04-20Game of Talents US S01E06 1080p HEVC x265
  29. 2021-04-20Saving Fear in Christian Spirituality by Ann W Astell
  30. 2021-04-20This Is My House S01E04 1080p HEVC x265
  31. 2021-04-20The Extremely Busy Womans Guide To Self Care Do Less Achieve More And Live The Life You Want
  32. 2021-04-20When The Dead Speak Sheila Bugler
  33. 2021-04-20Greys Anatomy S17E12 Sign O The Times 1080p AMZN WEBRip DDP5 1 x264 TOMMY
  34. 2021-04-20Snowfall S04E09 Sleeping Dogs 1080p HDTV x264 CRiMSON
  35. 2021-04-20Who Needs The Fed John Tamny
  36. 2021-04-20Kenan S01E08 1080p HEVC x265
  37. 2021-04-20Big Shot S01E01 720p HEVC x265
  38. 2021-04-20Infinity Train S04E04 720p HEVC x265
  39. 2021-04-20Sitting Pretty Rebekah Taussig
  40. 2021-04-20Lets Make A Deal 2009 S12E96 1080p HEVC x265
  41. 2021-04-20My 600 lb Life Where Are They Now S07E03 Angie J 720p HEVC x265
  42. 2021-04-20Cut to The Chase 2016 1080p AMZN WEBRip DD5 1 x264-NWD
  43. 2021-04-20Handbook Of Lost Wax Or Investment Casting
  44. 2021-04-20Floribama Shore S04E09 1080p HEVC x265
  45. 2021-04-20Mom S08E13 iNTERNAL 1080p WEB h264 KOGi
  46. 2021-04-20Extractive Metallurgy Of Copper 4th Edition
  47. 2021-04-20Law and Order SVU S22E11 1080p HEVC x265
  48. 2021-04-20Dad Stop Embarrassing Me S01E04 720p HEVC x265
  49. 2021-04-20Walker S01E09 1080p WEB H264 CAKES
  50. 2021-04-20The Companion Cambridge
  51. 2021-04-20Dad Stop Embarrassing Me S01E04 1080p WEB H264 GLHF
  52. 2021-04-20Wahl Street S01E04 1080p HEVC x265
  53. 2021-04-20Encyclopedia Of The Great Depression Vol 2
  54. 2021-04-20All In with Chris Hayes 2021 04 12 1080p WEBRip x265 HEVC LM
  55. 2021-04-20My 600 lb Life S09E13 Chrystals Journey 1080p HEVC x265
  56. 2021-04-20Yootheme Pro Templates for WordPress [Updated 04.2021]
  57. 2021-04-20Blue Bloods S11E12 1080p WEB H264 GGWP
  58. 2021-04-20Greg Harvey Microsoft Office Excel 2007 For Dummies Wiley 2007 - Removed
  59. 2021-04-20Everythings Gonna Be Okay S02E03 1080p HEVC x265
  60. 2021-04-20full frontal with samantha bee s06e10 1080p web h264 jebaited
  61. 2021-04-20A Time to Kill S03E01 What Happened to Lauren 1080p HEVC x265
  62. 2021-04-20Fisk S01E05 1080p HDTV H264 CBFM
  63. 2021-04-20Cut to The Chase 2016 PROPER 1080p WEBRip x264-RARBG
  64. 2021-04-20The Real Housewives of New Jersey S11E09 720p HEVC x265
  65. 2021-04-20The Fear Trilogy Blake Crouch
  66. 2021-04-20Britains Brightest Celebrity Family S02E02 1080p HEVC x265
  67. 2021-04-20CESTVS The Roman Fighter S01E01 1080p HEVC x265
  68. 2021-04-20Dad Stop Embarrassing Me S01 1080p NF WEBRip DDP5 1 x264 iKA
  69. 2021-04-20What Next Your Five Year Plan For Life After College
  70. 2021-04-20I Survived a Crime S01E19 720p HEVC x265
  71. 2021-04-20Bravos Chat Room S01E38 1080p WEB h264 BAE
  72. 2021-04-20My Old Home A Novel of Exile by Orville Schell
  73. 2021-04-20Van Helsing S05E01 1080p HEVC x265
  74. 2021-04-20New Dark Age Technology and the End of the Future by James Bridle
  75. 2021-04-20Outback Opal Hunters S06E02 720p HEVC x265
  76. 2021-04-20History Uncovered S01E03 iNTERNAL 1080p HEVC x265
  77. 2021-04-20Game of Talents US S01E06 1080p WEB h264 KOGi
  78. 2021-04-20Big Sky 2020 S01E10 1080p HEVC x265
  79. 2021-04-20Lone Star Law S08E05 Thrill of the Hunt 720p HEVC x265
  80. 2021-04-20Mom S08E14 1080p WEB H264 GGEZ
  81. 2021-04-20Risk Management Risk Management And Capital Adequacy
  82. 2021-04-20Jimmy Fallon 2021 04 14 Allison Janney 720p HEVC x265
  83. 2021-04-20Lets Make A Deal 2009 S12E98 720p HEVC x265
  84. 2021-04-20Thinking Faith after Christianity by Martin Koci
  85. 2021-04-20Aerial Britain S02E03 Arts and Culture 1080p HEVC x265
  86. 2021-04-20Mayans M C S03E06 720p HEVC x265
  87. 2021-04-203D Landscapes with Houdini and Clarisse
  88. 2021-04-20Kaye Carol Electric Bass Lines 3
  89. 2021-04-20Richard Dawkins Viruses Of The Mind
  90. 2021-04-20Supply Chain Management Models Applications And Research Directions
  91. 2021-04-20The Great British Sewing Bee S07E01 1080p HEVC x265
  92. 2021-04-20big sky 2020 s01e11 1080p web h264 ggez
  93. 2021-04-20Van Helsing S05E01 1080p WEB H264 GLHF
  94. 2021-04-20Mayans M C S03E06 You Cant PRay a Lie 1080p AMZN WEBRip DDP5 1 x264 NTb
  95. 2021-04-20Playing the Guitar by Hakim El Yamri
  96. 2021-04-20Tiny World S02E01 1080p HEVC x265
  97. 2021-04-2060 Minutes S53E31 1080p WEB h264 BAE
  98. 2021-04-20Lets Make A Deal 2009 S12E97 1080p HEVC x265
  99. 2021-04-20Tiny World S02E04 1080p HEVC x265

More eBooks ...

47998 pages, 4799707 eBooks in total, list all pages->

Search free ebooks in ebookee.com!
Back to Top